sat.trackr.live / text

‹ back to catalog

STARLINK-32787

NORAD 62809 · 2025-018D

PAYLOAD ACTIVE UNKNOWN

§ Identity

Operator
Country
US
Launch date
2025-01-24
Launch site
AFWTR
Launch vehicle
Mass (kg)
RCS (m²)

Purposes: comms

External: N2YO · Heavens-Above · Gunter

§ Orbital elements

Epoch: 2026-09-21T20:24:17.213472Z

Period
93.85 min
Inclination
53.1595°
Eccentricity
0.0001184
Mean motion
15.34402423 rev/d
Perigee alt
461.9 km
Apogee alt
463.5 km
Semi-major
6,840.8 km
B*
3.0168e-4
RAAN
115.4581°
Arg perigee
100.9447°
Mean anomaly
259.1689°
Rev number
9,324

§ Raw data

STARLINK-327871 62809U 25018D   26264.85019923  .00009831  00000+0  30168-3 0  99992 62809  53.1595 115.4581 0001184 100.9447 259.1689 15.34402423 93245

JSON: /api/v1/satellites/62809 · /tle

For live sub-satellite position, see the globe view (requires WebGL).

§ Visibility from observer

Set your observer location to see the next 7 days of passes ≥ 10°. The values pass through the URL so the page stays shareable.

No JS? Fill the form by hand. The geolocation button needs JavaScript.